Regional Weather Roundup
Issued by NWS

Home | Current Version | Previous Version | Graphics & Text | Print | Product List | Glossary On
Versions: 1 2 3 4 5 6 7 8 9 10 11 12 13 14 15 16 17 18 19 20 21 22 23 24 25 26 27 28 29 30 31 32 33 34 35 36 37 38 39 40 41 42 43 44 45 46 47 48 49 50
629
ASUS43 KFSD 181010
RWRSD

WEATHER ROUNDUP FOR SOUTH DAKOTA
NATIONAL WEATHER SERVICE SIOUX FALLS SD
500 AM CDT FRI AUG 18 2017

NOTE: "FAIR" INDICATES FEW OR NO CLOUDS BELOW 12,000 FEET WITH NO
SIGNIFICANT WEATHER AND/OR OBSTRUCTIONS TO VISIBILITY.


SDZ001>005-009-010-012>017-181100-
NORTHWEST AND NORTH CENTRAL SOUTH DAKOTA

CITY           SKY/WX    TMP DP  RH WIND       PRES   REMARKS
BUFFALO          N/A     62  44  51 NW6       29.93S
FAITH            N/A     59  46  62 NW9       29.95S
MOBRIDGE       PTCLDY    61  58  90 CALM      29.85F
$$

SDZ012>016-024>037-041>051-057-063-072>074-181100-
SOUTHWEST AND SOUTH CENTRAL SOUTH DAKOTA

CITY           SKY/WX    TMP DP  RH WIND       PRES   REMARKS
RAPID CTY ARPT PTCLDY    61  46  57 NW7       29.99F
PIERRE         CLEAR     59  57  93 S6        29.89S
CUSTER         CLOUDY    55  38  52 CALM      30.15S
ELLSWORTH AFB  MOCLDY    61  46  58 W9        29.98F
PHILIP         CLEAR     56  50  80 W13       29.93S
PINE RIDGE     CLEAR     53  50  89 W5        30.04S
SPEARFISH      MOCLDY    64  43  45 W8        30.04S
WINNER         FAIR      61  57  87 SW7       29.92S
$$

SDZ004>011-016>023-039-040-181100-
NORTHEAST SOUTH DAKOTA

CITY           SKY/WX    TMP DP  RH WIND       PRES   REMARKS
ABERDEEN       PTCLDY    63  58  83 N8        29.89R
WATERTOWN      LGT RAIN  62  58  86 CALM      29.89S
BROOKINGS      RAIN      61  57  87 SE8       29.91R
SISSETON         N/A     62  60  93 NW8       29.88R
$$

SDZ017-020-022-023-036>040-048>070-181100-
SOUTHEAST SOUTH DAKOTA

CITY           SKY/WX    TMP DP  RH WIND       PRES   REMARKS
SIOUX FALLS    LGT RAIN  63  61  93 N6        29.89R
HURON          CLOUDY    61  59  93 SW7       29.87F
CHAMBERLAIN    CLEAR     60  60 100 E7        29.90F
MITCHELL       LGT RAIN  62  60  93 SE6       29.90F
YANKTON        CLOUDY    62  57  83 W6        29.90F
$$

ABBREVIATIONS USED IN REMARKS
   TC - TEMPERATURE IN CELSIUS
  WCI - WIND CHILL INDEX
   HX - HEAT INDEX
  VSB - VISIBILITY





USA.gov is the U.S. government's official web portal to all federal, state and local government web resources and services.